Year,Month,Day,Hour,Minute,Value (Times are PST for temperature in C)
2018,10,16,00,00,7.70
2018,10,16,00,01,7.70
2018,10,16,00,02,7.70
2018,10,16,00,03,7.70
2018,10,16,00,04,7.70
2018,10,16,00,05,7.70
2018,10,16,00,06,7.70
2018,10,16,00,07,7.70
2018,10,16,00,08,7.60
2018,10,16,00,09,7.60
2018,10,16,00,10,7.60
2018,10,16,00,11,7.60
2018,10,16,00,12,7.60
2018,10,16,00,13,7.60
2018,10,16,00,14,7.60
2018,10,16,00,15,7.60
2018,10,16,00,16,7.60
2018,10,16,00,17,7.60
2018,10,16,00,18,7.60
2018,10,16,00,19,7.60
2018,10,16,00,20,7.50
2018,10,16,00,21,7.50
2018,10,16,00,22,7.50
2018,10,16,00,23,7.50
2018,10,16,00,24,7.50
2018,10,16,00,25,7.40
2018,10,16,00,26,7.40
2018,10,16,00,27,7.40
2018,10,16,00,28,7.40
2018,10,16,00,29,7.40
2018,10,16,00,30,7.40
2018,10,16,00,31,7.40
2018,10,16,00,32,7.40
2018,10,16,00,33,7.40
2018,10,16,00,34,7.40
2018,10,16,00,35,7.30
2018,10,16,00,36,7.30
2018,10,16,00,37,7.30
2018,10,16,00,38,7.30
2018,10,16,00,39,7.30
2018,10,16,00,40,7.30
2018,10,16,00,41,7.30
2018,10,16,00,42,7.30
2018,10,16,00,43,7.20
2018,10,16,00,44,7.20
2018,10,16,00,45,7.20
2018,10,16,00,46,7.20
2018,10,16,00,47,7.20
2018,10,16,00,48,7.20
2018,10,16,00,49,7.20
2018,10,16,00,50,7.20
2018,10,16,00,51,7.20
2018,10,16,00,52,7.20
2018,10,16,00,53,7.10
2018,10,16,00,54,7.10
2018,10,16,00,55,7.10
2018,10,16,00,56,7.10
2018,10,16,00,57,7.10
2018,10,16,00,58,7.10
2018,10,16,00,59,7.10
2018,10,16,01,00,7.10
2018,10,16,01,01,7.10
2018,10,16,01,02,7.10
2018,10,16,01,03,7.10
2018,10,16,01,04,7.10
2018,10,16,01,05,7.00
2018,10,16,01,06,7.00
2018,10,16,01,07,7.00
2018,10,16,01,08,7.00
2018,10,16,01,09,7.00
2018,10,16,01,10,7.00
2018,10,16,01,11,6.90
2018,10,16,01,12,6.90
2018,10,16,01,13,6.90
2018,10,16,01,14,6.90
2018,10,16,01,15,6.90
2018,10,16,01,16,6.90
2018,10,16,01,17,6.90
2018,10,16,01,18,6.90
2018,10,16,01,19,6.90
2018,10,16,01,20,6.90
2018,10,16,01,21,6.90
2018,10,16,01,22,6.90
2018,10,16,01,23,6.90
2018,10,16,01,24,6.90
2018,10,16,01,25,6.90
2018,10,16,01,26,6.90
2018,10,16,01,27,6.90
2018,10,16,01,28,6.90
2018,10,16,01,29,6.90
2018,10,16,01,30,6.90
2018,10,16,01,31,6.90
2018,10,16,01,32,6.80
2018,10,16,01,33,6.80
2018,10,16,01,34,6.80
2018,10,16,01,35,6.80
2018,10,16,01,36,6.80
2018,10,16,01,37,6.80
2018,10,16,01,38,6.80
2018,10,16,01,39,6.70
2018,10,16,01,40,6.70
2018,10,16,01,41,6.70
2018,10,16,01,42,6.70
2018,10,16,01,43,6.70
2018,10,16,01,44,6.70
2018,10,16,01,45,6.70
2018,10,16,01,46,6.70
2018,10,16,01,47,6.70
2018,10,16,01,48,6.60
2018,10,16,01,49,6.60
2018,10,16,01,50,6.60
2018,10,16,01,51,6.60
2018,10,16,01,52,6.60
2018,10,16,01,53,6.60
2018,10,16,01,54,6.60
2018,10,16,01,55,6.60
2018,10,16,01,56,6.60
2018,10,16,01,57,6.50
2018,10,16,01,58,6.50
2018,10,16,01,59,6.50
2018,10,16,02,00,6.50
2018,10,16,02,01,6.50
2018,10,16,02,02,6.50
2018,10,16,02,03,6.50
2018,10,16,02,04,6.50
2018,10,16,02,05,6.50
2018,10,16,02,06,6.50
2018,10,16,02,07,6.50
2018,10,16,02,08,6.50
2018,10,16,02,09,6.50
2018,10,16,02,10,6.50
2018,10,16,02,11,6.40
2018,10,16,02,12,6.40
2018,10,16,02,13,6.40
2018,10,16,02,14,6.40
2018,10,16,02,15,6.40
2018,10,16,02,16,6.40
2018,10,16,02,17,6.40
2018,10,16,02,18,6.40
2018,10,16,02,19,6.40
2018,10,16,02,20,6.40
2018,10,16,02,21,6.30
2018,10,16,02,22,6.30
2018,10,16,02,23,6.30
2018,10,16,02,24,6.30
2018,10,16,02,25,6.30
2018,10,16,02,26,6.30
2018,10,16,02,27,6.30
2018,10,16,02,28,6.30
2018,10,16,02,29,6.30
2018,10,16,02,30,6.30
2018,10,16,02,31,6.30
2018,10,16,02,32,6.30
2018,10,16,02,33,6.30
2018,10,16,02,34,6.20
2018,10,16,02,35,6.20
2018,10,16,02,36,6.20
2018,10,16,02,37,6.20
2018,10,16,02,38,6.20
2018,10,16,02,39,6.20
2018,10,16,02,40,6.20
2018,10,16,02,41,6.10
2018,10,16,02,42,6.10
2018,10,16,02,43,6.10
2018,10,16,02,44,6.10
2018,10,16,02,45,6.10
2018,10,16,02,46,6.10
2018,10,16,02,47,6.10
2018,10,16,02,48,6.10
2018,10,16,02,49,6.10
2018,10,16,02,50,6.10
2018,10,16,02,51,6.10
2018,10,16,02,52,6.10
2018,10,16,02,53,6.10
2018,10,16,02,54,6.10
2018,10,16,02,55,6.10
2018,10,16,02,56,6.10
2018,10,16,02,57,6.10
2018,10,16,02,58,6.10
2018,10,16,02,59,6.10
2018,10,16,03,00,6.10
2018,10,16,03,01,6.00
2018,10,16,03,02,6.00
2018,10,16,03,03,6.00
2018,10,16,03,04,5.90
2018,10,16,03,05,5.90
2018,10,16,03,06,5.90
2018,10,16,03,07,5.90
2018,10,16,03,08,5.90
2018,10,16,03,09,5.90
2018,10,16,03,10,5.90
2018,10,16,03,11,5.90
2018,10,16,03,12,5.90
2018,10,16,03,13,5.90
2018,10,16,03,14,5.80
2018,10,16,03,15,5.80
2018,10,16,03,16,5.80
2018,10,16,03,17,5.80
2018,10,16,03,18,5.80
2018,10,16,03,19,5.80
2018,10,16,03,20,5.80
2018,10,16,03,21,5.80
2018,10,16,03,22,5.80
2018,10,16,03,23,5.80
2018,10,16,03,24,5.80
2018,10,16,03,25,5.80
2018,10,16,03,26,5.80
2018,10,16,03,27,5.80
2018,10,16,03,28,5.80
2018,10,16,03,29,5.80
2018,10,16,03,30,5.80
2018,10,16,03,31,5.80
2018,10,16,03,32,5.80
2018,10,16,03,33,5.80
2018,10,16,03,34,5.80
2018,10,16,03,35,5.80
2018,10,16,03,36,5.80
2018,10,16,03,37,5.80
2018,10,16,03,38,5.80
2018,10,16,03,39,5.80
2018,10,16,03,40,5.80
2018,10,16,03,41,5.80
2018,10,16,03,42,5.80
2018,10,16,03,43,5.80
2018,10,16,03,44,5.80
2018,10,16,03,45,5.80
2018,10,16,03,46,5.80
2018,10,16,03,47,5.80
2018,10,16,03,48,5.70
2018,10,16,03,49,5.70
2018,10,16,03,50,5.70
2018,10,16,03,51,5.70
2018,10,16,03,52,5.70
2018,10,16,03,53,5.70
2018,10,16,03,54,5.70
2018,10,16,03,55,5.70
2018,10,16,03,56,5.70
2018,10,16,03,57,5.70
2018,10,16,03,58,5.70
2018,10,16,03,59,5.70
2018,10,16,04,00,5.70
2018,10,16,04,01,5.70
2018,10,16,04,02,5.70
2018,10,16,04,03,5.70
2018,10,16,04,04,5.70
2018,10,16,04,05,5.70
2018,10,16,04,06,5.70
2018,10,16,04,07,5.70
2018,10,16,04,08,5.70
2018,10,16,04,09,5.70
2018,10,16,04,10,5.70
2018,10,16,04,11,5.70
2018,10,16,04,12,5.70
2018,10,16,04,13,5.70
2018,10,16,04,14,5.70
2018,10,16,04,15,5.70
2018,10,16,04,16,5.70
2018,10,16,04,17,5.70
2018,10,16,04,18,5.70
2018,10,16,04,19,5.60
2018,10,16,04,20,5.60
2018,10,16,04,21,5.60
2018,10,16,04,22,5.60
2018,10,16,04,23,5.60
2018,10,16,04,24,5.60
2018,10,16,04,25,5.60
2018,10,16,04,26,5.60
2018,10,16,04,27,5.60
2018,10,16,04,28,5.60
2018,10,16,04,29,5.60
2018,10,16,04,30,5.60
2018,10,16,04,31,5.50
2018,10,16,04,32,5.50
2018,10,16,04,33,5.50
2018,10,16,04,34,5.50
2018,10,16,04,35,5.40
2018,10,16,04,36,5.40
2018,10,16,04,37,5.40
2018,10,16,04,38,5.40
2018,10,16,04,39,5.40
2018,10,16,04,40,5.40
2018,10,16,04,41,5.40
2018,10,16,04,42,5.40
2018,10,16,04,43,5.30
2018,10,16,04,44,5.40
2018,10,16,04,45,5.30
2018,10,16,04,46,5.30
2018,10,16,04,47,5.30
2018,10,16,04,48,5.30
2018,10,16,04,49,5.30
2018,10,16,04,50,5.30
2018,10,16,04,51,5.30
2018,10,16,04,52,5.30
2018,10,16,04,53,5.30
2018,10,16,04,54,5.30
2018,10,16,04,55,5.30
2018,10,16,04,56,5.30
2018,10,16,04,57,5.30
2018,10,16,04,58,5.30
2018,10,16,04,59,5.20
2018,10,16,05,00,5.20
2018,10,16,05,01,5.20
2018,10,16,05,02,5.20
2018,10,16,05,03,5.20
2018,10,16,05,04,5.20
2018,10,16,05,05,5.20
2018,10,16,05,06,5.10
2018,10,16,05,07,5.10
2018,10,16,05,08,5.10
2018,10,16,05,09,5.10
2018,10,16,05,10,5.10
2018,10,16,05,11,5.10
2018,10,16,05,12,5.00
2018,10,16,05,13,5.00
2018,10,16,05,14,5.00
2018,10,16,05,15,5.00
2018,10,16,05,16,4.90
2018,10,16,05,17,4.90
2018,10,16,05,18,4.90
2018,10,16,05,19,4.90
2018,10,16,05,20,4.90
2018,10,16,05,21,4.80
2018,10,16,05,22,4.80
2018,10,16,05,23,4.80
2018,10,16,05,24,4.80
2018,10,16,05,25,4.80
2018,10,16,05,26,4.80
2018,10,16,05,27,4.80
2018,10,16,05,28,4.80
2018,10,16,05,29,4.70
2018,10,16,05,30,4.70
2018,10,16,05,31,4.70
2018,10,16,05,32,4.70
2018,10,16,05,33,4.70
2018,10,16,05,34,4.70
2018,10,16,05,35,4.70
2018,10,16,05,36,4.70
2018,10,16,05,37,4.70
2018,10,16,05,38,4.70
2018,10,16,05,39,4.70
2018,10,16,05,40,4.80
2018,10,16,05,41,4.80
2018,10,16,05,42,4.80
2018,10,16,05,43,4.80
2018,10,16,05,44,4.80
2018,10,16,05,45,4.80
2018,10,16,05,46,4.80
2018,10,16,05,47,4.80
2018,10,16,05,48,4.80
2018,10,16,05,49,4.90
2018,10,16,05,50,4.90
2018,10,16,05,51,4.90
2018,10,16,05,52,4.90
2018,10,16,05,53,4.90
2018,10,16,05,54,4.90
2018,10,16,05,55,5.00
2018,10,16,05,56,5.00
2018,10,16,05,57,5.10
2018,10,16,05,58,5.10
2018,10,16,05,59,5.10
2018,10,16,06,00,5.10
2018,10,16,06,01,5.10
2018,10,16,06,02,5.10
2018,10,16,06,03,5.10
2018,10,16,06,04,5.10
2018,10,16,06,05,5.10
2018,10,16,06,06,5.10
2018,10,16,06,07,5.10
2018,10,16,06,08,5.10
2018,10,16,06,09,5.10
2018,10,16,06,10,5.10
2018,10,16,06,11,5.10
2018,10,16,06,12,5.10
2018,10,16,06,13,5.10
2018,10,16,06,14,5.00
2018,10,16,06,15,5.00
2018,10,16,06,16,5.00
2018,10,16,06,17,5.00
2018,10,16,06,18,5.00
2018,10,16,06,19,4.90
2018,10,16,06,20,4.90
2018,10,16,06,21,4.90
2018,10,16,06,22,4.90
2018,10,16,06,23,4.90
2018,10,16,06,24,4.90
2018,10,16,06,25,4.90
2018,10,16,06,26,4.90
2018,10,16,06,27,4.90
2018,10,16,06,28,4.90
2018,10,16,06,29,4.90
2018,10,16,06,30,4.90
2018,10,16,06,31,4.80
2018,10,16,06,32,4.80
2018,10,16,06,33,4.80
2018,10,16,06,34,4.80
2018,10,16,06,35,4.80
2018,10,16,06,36,4.80
2018,10,16,06,37,4.80
2018,10,16,06,38,4.80
2018,10,16,06,39,4.80
2018,10,16,06,40,4.80
2018,10,16,06,41,4.80
2018,10,16,06,42,4.80
2018,10,16,06,43,4.80
2018,10,16,06,44,4.80
2018,10,16,06,45,4.80
2018,10,16,06,46,4.80
2018,10,16,06,47,4.80
2018,10,16,06,48,4.80
2018,10,16,06,49,4.80
2018,10,16,06,50,4.80
2018,10,16,06,51,4.90
2018,10,16,06,52,4.90
2018,10,16,06,53,4.90
2018,10,16,06,54,4.90
2018,10,16,06,55,4.90
2018,10,16,06,56,4.90
2018,10,16,06,57,4.90
2018,10,16,06,58,4.90
2018,10,16,06,59,4.90
2018,10,16,07,00,4.90
2018,10,16,07,01,4.90
2018,10,16,07,02,4.90
2018,10,16,07,03,4.90
2018,10,16,07,04,4.90
2018,10,16,07,05,4.90
2018,10,16,07,06,4.90
2018,10,16,07,07,4.90
2018,10,16,07,08,4.90
2018,10,16,07,09,4.90
2018,10,16,07,10,4.90
2018,10,16,07,11,4.90
2018,10,16,07,12,4.90
2018,10,16,07,13,4.80
2018,10,16,07,14,4.80
2018,10,16,07,15,4.80
2018,10,16,07,16,4.80
2018,10,16,07,17,4.80
2018,10,16,07,18,4.80
2018,10,16,07,19,4.80
2018,10,16,07,20,4.80
2018,10,16,07,21,4.80
2018,10,16,07,22,4.80
2018,10,16,07,23,4.80
2018,10,16,07,24,4.80
2018,10,16,07,25,4.80
2018,10,16,07,26,4.80
2018,10,16,07,27,4.80
2018,10,16,07,28,4.80
2018,10,16,07,29,4.80
2018,10,16,07,30,4.80
2018,10,16,07,31,4.80
2018,10,16,07,32,4.80
2018,10,16,07,33,4.80
2018,10,16,07,34,4.80
2018,10,16,07,35,4.80
2018,10,16,07,36,4.80
2018,10,16,07,37,4.80
2018,10,16,07,38,4.80
2018,10,16,07,39,4.90
2018,10,16,07,40,4.90
2018,10,16,07,41,4.90
2018,10,16,07,42,4.90
2018,10,16,07,43,4.90
2018,10,16,07,44,4.90
2018,10,16,07,45,4.90
2018,10,16,07,46,4.90
2018,10,16,07,47,4.90
2018,10,16,07,48,4.90
2018,10,16,07,49,4.90
2018,10,16,07,50,4.90
2018,10,16,07,51,4.90
2018,10,16,07,52,4.90
2018,10,16,07,53,4.90
2018,10,16,07,54,4.90
2018,10,16,07,55,4.90
2018,10,16,07,56,4.90
2018,10,16,07,57,4.90
2018,10,16,07,58,4.90
2018,10,16,07,59,4.90
2018,10,16,08,00,5.00
2018,10,16,08,01,5.00
2018,10,16,08,02,5.00
2018,10,16,08,03,5.00
2018,10,16,08,04,5.00
2018,10,16,08,05,5.00
2018,10,16,08,06,5.00
2018,10,16,08,07,5.00
2018,10,16,08,08,5.00
2018,10,16,08,09,4.90
2018,10,16,08,10,4.90
2018,10,16,08,11,4.90
2018,10,16,08,12,4.90
2018,10,16,08,13,4.90
2018,10,16,08,14,4.90
2018,10,16,08,15,4.90
2018,10,16,08,16,4.90
2018,10,16,08,17,4.80
2018,10,16,08,18,4.80
2018,10,16,08,19,4.80
2018,10,16,08,20,4.80
2018,10,16,08,21,4.80
2018,10,16,08,22,4.80
2018,10,16,08,23,4.80
2018,10,16,08,24,4.80
2018,10,16,08,25,4.80
2018,10,16,08,26,4.80
2018,10,16,08,27,4.80
2018,10,16,08,28,4.80
2018,10,16,08,29,4.90
2018,10,16,08,30,4.90
2018,10,16,08,31,4.90
2018,10,16,08,32,4.90
2018,10,16,08,33,4.90
2018,10,16,08,34,4.90
2018,10,16,08,35,4.90
2018,10,16,08,36,4.90
2018,10,16,08,37,5.00
2018,10,16,08,38,5.00
2018,10,16,08,39,5.00
2018,10,16,08,40,5.00
2018,10,16,08,41,5.00
2018,10,16,08,42,5.10
2018,10,16,08,43,5.10
2018,10,16,08,44,5.10
2018,10,16,08,45,5.10
2018,10,16,08,46,5.10
2018,10,16,08,47,5.10
2018,10,16,08,48,5.20
2018,10,16,08,49,5.20
2018,10,16,08,50,5.20
2018,10,16,08,51,5.20
2018,10,16,08,52,5.20
2018,10,16,08,53,5.20
2018,10,16,08,54,5.30
2018,10,16,08,55,5.30
2018,10,16,08,56,5.30
2018,10,16,08,57,5.30
2018,10,16,08,58,5.30
2018,10,16,08,59,5.40
2018,10,16,09,00,5.40
2018,10,16,09,01,5.40
2018,10,16,09,02,5.40
2018,10,16,09,03,5.40
2018,10,16,09,04,5.40
2018,10,16,09,05,5.40
2018,10,16,09,06,5.40
2018,10,16,09,07,5.40
2018,10,16,09,08,5.40
2018,10,16,09,09,5.40
2018,10,16,09,10,5.50
2018,10,16,09,11,5.60
2018,10,16,09,12,5.60
2018,10,16,09,13,5.60
2018,10,16,09,14,5.60
2018,10,16,09,15,5.70
2018,10,16,09,16,5.70
2018,10,16,09,17,5.70
2018,10,16,09,18,5.70
2018,10,16,09,19,5.70
2018,10,16,09,20,5.70
2018,10,16,09,21,5.70
2018,10,16,09,22,5.70
2018,10,16,09,23,5.70
2018,10,16,09,24,5.70
2018,10,16,09,25,5.70
2018,10,16,09,26,5.70
2018,10,16,09,27,5.80
2018,10,16,09,28,5.80
2018,10,16,09,29,5.80
2018,10,16,09,30,5.80
2018,10,16,09,31,5.80
2018,10,16,09,32,5.80
2018,10,16,09,33,5.80
2018,10,16,09,34,5.90
2018,10,16,09,35,5.90
2018,10,16,09,36,5.90
2018,10,16,09,37,5.90
2018,10,16,09,38,5.80
2018,10,16,09,39,5.90
2018,10,16,09,40,5.90
2018,10,16,09,41,5.90
2018,10,16,09,42,5.90
2018,10,16,09,43,5.90
2018,10,16,09,44,5.90
2018,10,16,09,45,6.00
2018,10,16,09,46,6.00
2018,10,16,09,47,6.10
2018,10,16,09,48,6.10
2018,10,16,09,49,6.10
2018,10,16,09,50,6.10
2018,10,16,09,51,6.10
2018,10,16,09,52,6.10
2018,10,16,09,53,6.10
2018,10,16,09,54,6.20
2018,10,16,09,55,6.20
2018,10,16,09,56,6.20
2018,10,16,09,57,6.20
2018,10,16,09,58,6.20
2018,10,16,09,59,6.20
2018,10,16,10,00,6.20
2018,10,16,10,01,6.30
2018,10,16,10,02,6.30
2018,10,16,10,03,6.30
2018,10,16,10,04,6.30
2018,10,16,10,05,6.20
2018,10,16,10,06,6.20
2018,10,16,10,07,6.20
2018,10,16,10,08,6.20
2018,10,16,10,09,6.10
2018,10,16,10,10,6.10
2018,10,16,10,11,6.10
2018,10,16,10,12,6.10
2018,10,16,10,13,6.10
2018,10,16,10,14,6.20
2018,10,16,10,15,6.20
2018,10,16,10,16,6.20
2018,10,16,10,17,6.30
2018,10,16,10,18,6.30
2018,10,16,10,19,6.40
2018,10,16,10,20,6.40
2018,10,16,10,21,6.50
2018,10,16,10,22,6.50
2018,10,16,10,23,6.60
2018,10,16,10,24,6.60
2018,10,16,10,25,6.60
2018,10,16,10,26,6.60
2018,10,16,10,27,6.60
2018,10,16,10,28,6.70
2018,10,16,10,29,6.70
2018,10,16,10,30,6.70
2018,10,16,10,31,6.70
2018,10,16,10,32,6.80
2018,10,16,10,33,6.80
2018,10,16,10,34,6.80
2018,10,16,10,35,6.80
2018,10,16,10,36,6.80
2018,10,16,10,37,6.90
2018,10,16,10,38,6.90
2018,10,16,10,39,7.00
2018,10,16,10,40,7.10
2018,10,16,10,41,7.10
2018,10,16,10,42,7.10
2018,10,16,10,43,7.10
2018,10,16,10,44,7.20
2018,10,16,10,45,7.20
2018,10,16,10,46,7.20
2018,10,16,10,47,7.20
2018,10,16,10,48,7.20
2018,10,16,10,49,7.20
2018,10,16,10,50,7.30
2018,10,16,10,51,7.30
2018,10,16,10,52,7.30
2018,10,16,10,53,7.40
2018,10,16,10,54,7.40
2018,10,16,10,55,7.60
2018,10,16,10,56,7.60
2018,10,16,10,57,7.70
2018,10,16,10,58,7.80
2018,10,16,10,59,7.80
2018,10,16,11,00,7.80
2018,10,16,11,01,7.90
2018,10,16,11,02,8.00
2018,10,16,11,03,8.10
2018,10,16,11,04,8.20
2018,10,16,11,05,8.20
2018,10,16,11,06,8.30
2018,10,16,11,07,8.40
2018,10,16,11,08,8.40
2018,10,16,11,09,8.60
2018,10,16,11,10,8.70
2018,10,16,11,11,8.70
2018,10,16,11,12,8.80
2018,10,16,11,13,8.90
2018,10,16,11,14,9.10
2018,10,16,11,15,9.20
2018,10,16,11,16,9.20
2018,10,16,11,17,9.30
2018,10,16,11,18,9.40
2018,10,16,11,19,9.50
2018,10,16,11,20,9.70
2018,10,16,11,21,9.80
2018,10,16,11,22,9.80
2018,10,16,11,23,10.00
2018,10,16,11,24,10.10
2018,10,16,11,25,10.20
2018,10,16,11,26,10.30
2018,10,16,11,27,10.40
2018,10,16,11,28,10.40
2018,10,16,11,29,10.60
2018,10,16,11,30,10.70
2018,10,16,11,31,10.80
2018,10,16,11,32,10.80
2018,10,16,11,33,10.90
2018,10,16,11,34,11.00
2018,10,16,11,35,11.10
2018,10,16,11,36,11.20
2018,10,16,11,37,11.30
2018,10,16,11,38,11.30
2018,10,16,11,39,11.30
2018,10,16,11,40,11.30
2018,10,16,11,41,11.30
2018,10,16,11,42,11.30
2018,10,16,11,43,11.20
2018,10,16,11,44,11.20
2018,10,16,11,45,11.20
2018,10,16,11,46,11.20
2018,10,16,11,47,11.30
2018,10,16,11,48,11.30
2018,10,16,11,49,11.40
2018,10,16,11,50,11.60
2018,10,16,11,51,11.60
2018,10,16,11,52,11.70
2018,10,16,11,53,11.80
2018,10,16,11,54,11.90
2018,10,16,11,55,12.00
2018,10,16,11,56,12.10
2018,10,16,11,57,12.20
2018,10,16,11,58,12.30
2018,10,16,11,59,12.30
2018,10,16,12,00,12.40
2018,10,16,12,01,12.40
2018,10,16,12,02,12.40
2018,10,16,12,03,12.50
2018,10,16,12,04,12.60
2018,10,16,12,05,12.70
2018,10,16,12,06,12.70
2018,10,16,12,07,12.80
2018,10,16,12,08,12.90
2018,10,16,12,09,13.00
2018,10,16,12,10,13.10
2018,10,16,12,11,13.10
2018,10,16,12,12,13.20
2018,10,16,12,13,13.30
2018,10,16,12,14,13.40
2018,10,16,12,15,13.40
2018,10,16,12,16,13.50
2018,10,16,12,17,13.60
2018,10,16,12,18,13.60
2018,10,16,12,19,13.70
2018,10,16,12,20,13.70
2018,10,16,12,21,13.70
2018,10,16,12,22,13.70
2018,10,16,12,23,13.80
2018,10,16,12,24,13.80
2018,10,16,12,25,13.80
2018,10,16,12,26,13.80
2018,10,16,12,27,13.90
2018,10,16,12,28,13.90
2018,10,16,12,29,14.00
2018,10,16,12,30,14.10
2018,10,16,12,31,14.10
2018,10,16,12,32,14.10
2018,10,16,12,33,14.20
2018,10,16,12,34,14.20
2018,10,16,12,35,14.30
2018,10,16,12,36,14.30
2018,10,16,12,37,14.40
2018,10,16,12,38,14.50
2018,10,16,12,39,14.60
2018,10,16,12,40,14.60
2018,10,16,12,41,14.60
2018,10,16,12,42,14.70
2018,10,16,12,43,14.70
2018,10,16,12,44,14.70
2018,10,16,12,45,14.80
2018,10,16,12,46,14.80
2018,10,16,12,47,14.80
2018,10,16,12,48,14.80
2018,10,16,12,49,14.80
2018,10,16,12,50,14.80
2018,10,16,12,51,14.80
2018,10,16,12,52,14.80
2018,10,16,12,53,14.80
2018,10,16,12,54,14.80
2018,10,16,12,55,14.90
2018,10,16,12,56,14.90
2018,10,16,12,57,15.00
2018,10,16,12,58,15.10
2018,10,16,12,59,15.20
2018,10,16,13,00,15.20
2018,10,16,13,01,15.30
2018,10,16,13,02,15.40
2018,10,16,13,03,15.50
2018,10,16,13,04,15.60
2018,10,16,13,05,15.60
2018,10,16,13,06,15.70
2018,10,16,13,07,15.70
2018,10,16,13,08,15.80
2018,10,16,13,09,15.90
2018,10,16,13,10,15.90
2018,10,16,13,11,16.10
2018,10,16,13,12,16.10
2018,10,16,13,13,16.20
2018,10,16,13,14,16.30
2018,10,16,13,15,16.30
2018,10,16,13,16,16.30
2018,10,16,13,17,16.30
2018,10,16,13,18,16.30
2018,10,16,13,19,16.30
2018,10,16,13,20,16.30
2018,10,16,13,21,16.30
2018,10,16,13,22,16.30
2018,10,16,13,23,16.40
2018,10,16,13,24,16.40
2018,10,16,13,25,16.50
2018,10,16,13,26,16.60
2018,10,16,13,27,16.60
2018,10,16,13,28,16.70
2018,10,16,13,29,16.80
2018,10,16,13,30,16.80
2018,10,16,13,31,16.80
2018,10,16,13,32,16.90
2018,10,16,13,33,16.90
2018,10,16,13,34,16.90
2018,10,16,13,35,16.90
2018,10,16,13,36,16.90
2018,10,16,13,37,17.00
2018,10,16,13,38,17.10
2018,10,16,13,39,17.10
2018,10,16,13,40,17.10
2018,10,16,13,41,17.20
2018,10,16,13,42,17.20
2018,10,16,13,43,17.30
2018,10,16,13,44,17.30
2018,10,16,13,45,17.30
2018,10,16,13,46,17.40
2018,10,16,13,47,17.40
2018,10,16,13,48,17.50
2018,10,16,13,49,17.50
2018,10,16,13,50,17.50
2018,10,16,13,51,17.50
2018,10,16,13,52,17.60
2018,10,16,13,53,17.70
2018,10,16,13,54,17.70
2018,10,16,13,55,17.80
2018,10,16,13,56,17.80
2018,10,16,13,57,17.90
2018,10,16,13,58,17.90
2018,10,16,13,59,18.10
2018,10,16,14,00,18.10
2018,10,16,14,01,18.20
2018,10,16,14,02,18.30
2018,10,16,14,03,18.30
2018,10,16,14,04,18.30
2018,10,16,14,05,18.30
2018,10,16,14,06,18.30
2018,10,16,14,07,18.40
2018,10,16,14,08,18.40
2018,10,16,14,09,18.40
2018,10,16,14,10,18.50
2018,10,16,14,11,18.50
2018,10,16,14,12,18.60
2018,10,16,14,13,18.60
2018,10,16,14,14,18.70
2018,10,16,14,15,18.70
2018,10,16,14,16,18.80
2018,10,16,14,17,18.80
2018,10,16,14,18,18.80
2018,10,16,14,19,18.90
2018,10,16,14,20,18.90
2018,10,16,14,21,19.00
2018,10,16,14,22,18.90
2018,10,16,14,23,19.00
2018,10,16,14,24,19.00
2018,10,16,14,25,19.00
2018,10,16,14,26,19.10
2018,10,16,14,27,19.10
2018,10,16,14,28,19.10
2018,10,16,14,29,19.10
2018,10,16,14,30,19.20
2018,10,16,14,31,19.20
2018,10,16,14,32,19.30
2018,10,16,14,33,19.40
2018,10,16,14,34,19.40
2018,10,16,14,35,19.40
2018,10,16,14,36,19.60
2018,10,16,14,37,19.60
2018,10,16,14,38,19.70
2018,10,16,14,39,19.70
2018,10,16,14,40,19.80
2018,10,16,14,41,19.80
2018,10,16,14,42,19.80
2018,10,16,14,43,19.90
2018,10,16,14,44,19.90
2018,10,16,14,45,20.00
2018,10,16,14,46,20.00
2018,10,16,14,47,20.00
2018,10,16,14,48,20.10
2018,10,16,14,49,19.90
2018,10,16,14,50,19.80
2018,10,16,14,51,19.80
2018,10,16,14,52,19.90
2018,10,16,14,53,19.90
2018,10,16,14,54,19.90
2018,10,16,14,55,20.10
2018,10,16,14,56,20.10
2018,10,16,14,57,20.20
2018,10,16,14,58,20.20
2018,10,16,14,59,20.30
2018,10,16,15,00,20.30
2018,10,16,15,01,20.30
2018,10,16,15,02,20.40
2018,10,16,15,03,20.40
2018,10,16,15,04,20.50
2018,10,16,15,05,20.60
2018,10,16,15,06,20.60
2018,10,16,15,07,20.70
2018,10,16,15,08,20.70
2018,10,16,15,09,20.70
2018,10,16,15,10,20.70
2018,10,16,15,11,20.80
2018,10,16,15,12,20.80
2018,10,16,15,13,20.80
2018,10,16,15,14,20.80
2018,10,16,15,15,20.90
2018,10,16,15,16,20.90
2018,10,16,15,17,20.90
2018,10,16,15,18,20.80
2018,10,16,15,19,20.80
2018,10,16,15,20,20.70
2018,10,16,15,21,20.60
2018,10,16,15,22,20.60
2018,10,16,15,23,20.60
2018,10,16,15,24,20.60
2018,10,16,15,25,20.70
2018,10,16,15,26,20.70
2018,10,16,15,27,20.80
2018,10,16,15,28,20.90
2018,10,16,15,29,20.90
2018,10,16,15,30,20.90
2018,10,16,15,31,21.10
2018,10,16,15,32,21.10
2018,10,16,15,33,21.10
2018,10,16,15,34,21.10
2018,10,16,15,35,21.00
2018,10,16,15,36,20.90
2018,10,16,15,37,20.90
2018,10,16,15,38,20.80
2018,10,16,15,39,20.80
2018,10,16,15,40,20.80
2018,10,16,15,41,20.80
2018,10,16,15,42,20.80
2018,10,16,15,43,20.80
2018,10,16,15,44,20.80
2018,10,16,15,45,20.80
2018,10,16,15,46,20.90
2018,10,16,15,47,21.00
2018,10,16,15,48,21.10
2018,10,16,15,49,21.20
2018,10,16,15,50,21.20
2018,10,16,15,51,21.30
2018,10,16,15,52,21.30
2018,10,16,15,53,21.40
2018,10,16,15,54,21.50
2018,10,16,15,55,21.60
2018,10,16,15,56,21.60
2018,10,16,15,57,21.70
2018,10,16,15,58,21.70
2018,10,16,15,59,21.80
2018,10,16,16,00,21.90
2018,10,16,16,01,21.90
2018,10,16,16,02,22.00
2018,10,16,16,03,22.10
2018,10,16,16,04,22.10
2018,10,16,16,05,22.10
2018,10,16,16,06,22.20
2018,10,16,16,07,22.20
2018,10,16,16,08,22.20
2018,10,16,16,09,22.20
2018,10,16,16,10,22.20
2018,10,16,16,11,22.30
2018,10,16,16,12,22.30
2018,10,16,16,13,22.30
2018,10,16,16,14,22.30
2018,10,16,16,15,22.30
2018,10,16,16,16,22.40
2018,10,16,16,17,22.40
2018,10,16,16,18,22.30
2018,10,16,16,19,22.40
2018,10,16,16,20,22.40
2018,10,16,16,21,22.40
2018,10,16,16,22,22.40
2018,10,16,16,23,22.40
2018,10,16,16,24,22.40
2018,10,16,16,25,22.40
2018,10,16,16,26,22.50
2018,10,16,16,27,22.50
2018,10,16,16,28,22.60
2018,10,16,16,29,22.60
2018,10,16,16,30,22.60
2018,10,16,16,31,22.60
2018,10,16,16,32,22.60
2018,10,16,16,33,22.60
2018,10,16,16,34,22.60
2018,10,16,16,35,22.50
2018,10,16,16,36,22.40
2018,10,16,16,37,22.40
2018,10,16,16,38,22.30
2018,10,16,16,39,22.30
2018,10,16,16,40,22.30
2018,10,16,16,41,22.30
2018,10,16,16,42,22.30
2018,10,16,16,43,22.30
2018,10,16,16,44,22.20
2018,10,16,16,45,22.20
2018,10,16,16,46,22.10
2018,10,16,16,47,22.00
2018,10,16,16,48,21.90
2018,10,16,16,49,21.90
2018,10,16,16,50,21.80
2018,10,16,16,51,21.80
2018,10,16,16,52,21.70
2018,10,16,16,53,21.60
2018,10,16,16,54,21.50
2018,10,16,16,55,21.40
2018,10,16,16,56,21.40
2018,10,16,16,57,21.30
2018,10,16,16,58,21.30
2018,10,16,16,59,21.20
2018,10,16,17,00,21.20
2018,10,16,17,01,21.20
2018,10,16,17,02,21.20
2018,10,16,17,03,21.00
2018,10,16,17,04,20.90
2018,10,16,17,05,20.90
2018,10,16,17,06,20.80
2018,10,16,17,07,20.80
2018,10,16,17,08,20.80
2018,10,16,17,09,20.70
2018,10,16,17,10,20.60
2018,10,16,17,11,20.60
2018,10,16,17,12,20.50
2018,10,16,17,13,20.40
2018,10,16,17,14,20.30
2018,10,16,17,15,20.30
2018,10,16,17,16,20.20
2018,10,16,17,17,20.10
2018,10,16,17,18,20.10
2018,10,16,17,19,20.00
2018,10,16,17,20,19.90
2018,10,16,17,21,19.90
2018,10,16,17,22,19.80
2018,10,16,17,23,19.70
2018,10,16,17,24,19.60
2018,10,16,17,25,19.50
2018,10,16,17,26,19.40
2018,10,16,17,27,19.30
2018,10,16,17,28,19.20
2018,10,16,17,29,19.20
2018,10,16,17,30,19.10
2018,10,16,17,31,19.00
2018,10,16,17,32,18.90
2018,10,16,17,33,18.80
2018,10,16,17,34,18.80
2018,10,16,17,35,18.70
2018,10,16,17,36,18.60
2018,10,16,17,37,18.50
2018,10,16,17,38,18.40
2018,10,16,17,39,18.30
2018,10,16,17,40,18.30
2018,10,16,17,41,18.20
2018,10,16,17,42,18.20
2018,10,16,17,43,18.10
2018,10,16,17,44,18.00
2018,10,16,17,45,17.90
2018,10,16,17,46,17.80
2018,10,16,17,47,17.70
2018,10,16,17,48,17.70
2018,10,16,17,49,17.60